GFSSW_925_rhum_003.txt.gz
RH
26 28 38 34 34 32 35 29 25 20 19 19 17 17 27 32 29 28 31 32 31 26 26 29 26 25 25 28 27 28 40 38 27 21 23 25 23 24 24 28 29 32 37 34 38
21 22 36 31 30 30 32 29 24 18 20 17 17 28 36 35 33 30 27 26 28 24 30 31 28 27 32 29 32 39 44 30 23 22 24 26 26 30 30 34 35 40 37 35 32
22 17 30 32 34 30 30 30 24 17 18 17 24 31 37 41 29 27 26 26 24 24 32 37 35 26 26 28 29 32 31 28 23 22 22 24 28 31 31 41 43 47 40 32 31
20 20 33 35 34 30 28 30 24 21 17 20 26 31 36 44 29 22 24 24 27 29 27 27 24 24 29 29 27 28 26 24 22 24 22 25 32 40 39 44 36 36 34 32 34
23 34 34 35 31 28 27 29 24 27 30 30 31 33 34 29 25 21 23 22 22 23 25 25 26 26 27 25 24 27 21 21 24 26 29 31 37 38 39 35 31 30 31 34 35
29 34 36 34 29 27 30 28 21 22 28 28 30 31 24 31 22 19 22 22 21 22 25 24 25 25 26 26 25 23 23 24 23 25 26 32 34 33 35 32 33 32 33 31 32
31 34 36 31 28 28 28 24 19 20 25 26 23 21 25 24 19 16 15 22 21 22 23 24 23 22 26 25 26 23 24 25 26 21 26 27 39 40 32 31 34 36 30 27 28
31 34 34 30 26 25 23 21 21 23 24 26 22 20 25 20 17 16 16 20 20 21 22 20 20 24 26 26 27 28 30 36 30 26 27 26 53 39 32 33 37 36 33 25 25
33 36 33 30 28 29 25 24 25 27 29 32 26 20 24 19 20 18 17 16 20 20 22 21 22 29 31 32 36 38 37 35 33 26 26 33 51 38 33 32 36 36 33 28 28
33 36 36 31 31 30 30 29 27 27 29 25 24 22 25 27 20 18 17 19 21 22 25 28 35 34 38 40 45 38 39 35 35 28 39 44 47 40 38 35 39 36 33 32 34
35 35 35 32 32 32 32 35 27 28 25 30 28 28 25 22 21 18 19 18 23 30 34 34 34 39 34 29 28 30 32 31 30 33 48 46 45 42 36 35 37 38 38 38 39
31 35 33 33 34 35 34 39 36 27 31 26 24 25 24 23 23 21 19 24 32 37 32 33 36 32 29 31 32 31 31 33 29 38 44 45 49 38 32 34 38 41 42 44 43
23 33 32 33 28 27 33 47 44 33 37 26 25 24 24 21 24 26 26 26 31 34 33 32 29 29 27 35 37 36 31 32 33 43 45 44 53 44 33 37 39 42 45 46 46
21 29 31 32 30 35 41 41 38 36 33 33 26 23 20 25 23 24 26 24 29 33 32 33 29 31 30 32 36 36 30 34 38 40 50 46 62 59 40 45 44 50 56 55 51
22 30 33 32 36 34 37 38 41 28 30 28 26 20 20 23 22 28 26 27 36 31 27 31 32 34 32 32 34 35 37 39 37 44 41 43 59 66 41 52 49 52 53 53 52
22 27 35 38 42 45 36 35 32 22 32 28 26 29 25 28 32 33 38 34 34 34 34 33 27 30 31 31 29 32 36 32 41 47 45 40 46 68 52 48 52 54 56 54 50
25 26 29 34 41 41 37 30 28 37 27 29 28 29 32 33 36 42 50 57 58 36 54 45 34 35 31 33 32 39 39 32 26 36 32 40 57 59 42 43 46 54 57 54 52
29 27 40 42 47 45 36 29 32 34 36 32 29 32 36 35 41 50 54 66 58 54 62 57 35 40 36 31 35 39 42 35 28 30 30 53 63 49 41 41 43 46 52 53 62
32 28 29 48 51 44 39 52 37 37 35 32 32 35 39 38 39 54 64 65 59 57 54 62 44 38 35 30 32 34 52 40 50 50 54 81 40 38 35 43 48 54 57 64 72
36 32 38 37 42 33 54 59 48 44 40 34 34 36 40 46 42 54 59 56 57 52 51 52 60 40 37 32 33 36 34 34 52 48 47 52 79 59 52 56 55 62 68 72 74
35 41 41 44 40 57 54 54 45 42 39 36 38 41 45 45 44 57 62 57 53 54 43 44 53 40 36 45 46 44 46 42 43 55 63 72 53 41 46 52 60 64 65 80 73
45 39 46 42 55 82 70 52 42 43 44 42 45 42 44 46 50 60 56 60 51 50 46 42 56 54 42 38 32 35 34 41 39 34 50 63 53 39 41 47 51 60 71 79 72
51 55 51 48 48 77 57 58 56 47 49 45 46 42 41 47 52 62 65 51 45 37 33 36 44 43 27 27 25 30 28 24 36 48 48 52 44 32 43 50 50 62 85 83 74
56 42 52 69 64 64 60 57 57 48 47 46 46 42 44 48 51 67 70 54 40 40 42 40 47 37 29 25 34 35 35 31 34 49 47 51 49 31 41 50 51 61 90 89 76
75 57 55 52 51 57 57 56 55 50 46 45 46 45 44 50 49 56 65 50 36 39 36 35 33 38 36 37 36 36 36 34 39 36 51 38 44 42 49 53 58 77 80 78 81
65 67 67 62 51 53 54 50 55 56 49 46 49 46 44 46 44 49 47 45 38 35 36 44 38 43 36 40 40 42 37 37 35 36 41 43 55 46 48 62 68 87 83 84 82
58 52 59 67 59 53 54 52 52 53 47 48 49 49 46 44 41 39 41 42 36 39 46 47 49 51 46 46 44 56 40 35 34 34 42 61 55 54 63 71 74 87 84 89 86

GFSSW_925_rhum_006.txt.gz
RH
24 28 38 33 33 34 33 26 20 20 21 21 16 24 30 28 26 26 32 32 33 26 27 27 24 25 24 31 29 29 43 39 28 25 28 31 28 30 29 40 36 41 42 35 28
22 22 38 34 31 30 34 26 18 20 18 16 25 32 34 34 28 29 31 26 26 25 31 34 35 28 32 32 34 40 45 29 25 23 38 40 39 36 41 44 46 37 32 32 31
23 19 34 35 32 29 32 25 18 20 17 24 32 36 36 38 26 26 26 28 24 27 31 35 30 24 29 30 32 30 32 27 28 27 28 34 41 38 40 50 47 46 39 33 32
26 35 37 35 30 27 31 25 18 18 20 25 28 32 30 35 30 22 24 24 24 24 24 24 26 25 31 29 27 30 26 27 33 31 28 39 36 42 42 45 36 35 33 34 35
34 37 36 35 31 28 31 26 23 20 24 28 32 33 25 27 25 22 22 22 22 23 26 25 28 27 29 26 25 27 24 30 33 34 34 33 39 40 40 37 31 27 29 31 31
36 38 37 32 29 29 30 24 26 29 29 29 28 24 22 31 22 17 18 22 22 22 25 24 26 26 28 28 28 27 32 30 30 32 33 37 38 36 37 34 33 27 27 27 28
37 38 33 30 29 29 24 20 21 25 27 25 22 20 24 23 19 17 17 22 22 22 23 23 23 23 27 26 26 26 30 29 30 27 34 34 43 44 36 32 33 36 31 29 31
38 36 32 28 27 25 20 21 23 24 26 25 21 20 26 19 18 17 16 20 20 22 22 21 21 27 26 27 29 28 33 40 31 32 32 36 58 42 36 33 36 35 37 35 36
38 34 29 30 24 22 22 23 25 29 31 29 21 21 26 17 18 18 18 18 21 21 21 20 21 30 31 31 36 41 40 38 34 36 35 40 54 43 35 32 36 39 40 40 42
37 33 32 32 31 29 28 27 26 26 25 23 22 21 23 27 21 19 18 20 23 22 23 27 34 35 34 38 41 38 38 35 37 40 40 47 52 43 38 38 45 46 44 45 46
36 35 33 32 34 32 31 29 22 28 25 30 28 29 26 23 20 21 21 20 25 32 36 32 37 41 35 31 27 31 32 33 37 40 47 51 44 41 39 43 47 49 50 49 49
35 35 34 37 37 36 31 32 32 28 30 26 25 25 25 22 24 23 21 24 28 30 31 30 39 34 33 33 32 31 32 35 46 42 47 44 46 39 39 43 47 51 55 51 52
31 33 36 34 30 28 32 44 35 29 33 24 26 24 24 21 29 30 28 26 32 32 34 36 30 32 28 38 36 34 31 34 33 47 46 43 50 42 36 41 45 50 52 51 52
25 32 34 32 28 34 41 38 36 32 31 31 25 24 20 24 26 27 28 25 31 37 31 34 30 31 33 35 37 31 31 35 38 47 56 49 72 50 45 49 50 56 58 58 56
24 29 31 32 32 32 38 37 38 21 28 26 27 21 22 27 27 28 29 29 33 34 28 32 34 36 35 34 33 29 36 37 40 48 45 56 63 68 45 54 53 55 56 57 58
24 33 34 35 39 40 38 36 25 23 34 28 27 31 26 32 38 38 43 36 34 35 36 37 30 33 34 32 31 34 31 30 41 50 48 48 56 69 60 52 53 53 56 57 58
27 29 32 34 42 39 37 26 30 35 28 29 31 31 36 36 40 49 53 58 59 33 53 43 36 37 34 34 36 42 32 28 24 30 27 48 47 61 47 45 48 54 57 58 59
30 31 38 43 47 40 30 28 30 35 36 33 31 33 38 39 46 53 54 64 58 55 64 51 34 42 38 33 38 43 37 28 22 27 28 52 54 50 46 44 44 48 54 59 65
33 28 36 57 52 40 38 46 35 37 35 33 32 34 40 40 42 53 65 65 60 61 49 58 40 39 38 34 32 34 54 41 48 49 54 64 43 40 37 44 48 54 57 69 78
36 33 41 43 42 30 50 57 48 45 40 34 34 37 41 48 42 52 56 58 59 55 53 52 50 41 37 32 34 37 36 23 42 34 30 47 75 59 50 54 54 60 66 77 78
36 48 44 46 34 54 48 52 47 44 39 36 38 43 46 45 48 58 60 58 55 54 42 45 55 36 34 47 46 43 41 40 41 56 54 71 51 46 48 50 57 58 63 86 81
41 48 50 44 55 83 65 48 42 44 43 42 44 42 44 46 52 59 59 61 52 49 43 42 55 50 43 39 31 32 34 33 36 26 54 64 51 37 42 48 53 56 71 84 78
53 63 45 43 46 74 60 57 55 45 49 46 46 42 43 50 52 62 63 52 41 33 33 35 42 39 27 31 26 29 29 29 39 47 50 48 39 39 39 49 50 59 83 90 83
54 46 56 70 66 64 60 56 56 49 48 48 48 42 45 49 58 69 68 56 39 39 45 41 47 36 28 25 33 38 33 33 38 50 48 51 49 33 42 53 53 61 88 87 85
70 51 56 52 52 58 55 54 54 50 47 45 47 46 44 51 50 62 64 51 36 39 38 34 35 39 37 38 37 38 37 36 40 40 46 38 41 39 52 57 63 76 86 73 83
64 64 70 67 55 52 54 51 53 56 49 46 50 47 44 47 44 56 56 52 43 36 38 45 37 42 32 42 40 41 37 35 35 35 39 41 51 44 52 64 72 84 76 84 85
58 52 59 71 60 49 54 55 53 54 48 51 51 49 47 43 41 40 45 46 38 40 44 47 46 38 31 45 45 44 46 38 34 33 36 51 45 54 63 67 76 92 84 90 81

GFSSW_925_rhum_009.txt.gz
RH
23 31 34 31 30 33 27 21 20 22 22 16 25 29 28 26 26 27 36 33 32 27 28 23 22 23 24 35 31 31 40 37 30 32 36 36 36 33 30 30 31 31 31 31 31
22 22 34 30 29 32 26 19 19 18 16 23 29 32 35 30 25 29 34 29 24 27 27 29 32 25 33 34 37 39 45 35 30 34 44 39 38 36 33 33 32 30 30 31 30
24 20 31 32 30 32 25 18 17 17 23 30 34 36 34 38 24 26 26 26 27 25 24 27 24 25 33 33 35 31 37 32 32 34 34 37 36 35 37 37 37 36 31 30 31
30 31 32 32 28 32 25 18 18 22 28 30 29 29 24 25 31 23 23 23 23 23 22 22 27 28 34 31 29 34 34 33 38 34 32 36 31 38 36 37 28 27 29 30 32
33 34 34 32 29 32 25 17 18 22 25 30 29 25 21 28 26 19 22 21 21 23 24 26 29 28 31 28 30 32 34 33 33 34 35 33 37 35 34 29 26 29 33 34 35
36 37 35 31 30 31 25 24 24 28 28 27 22 18 20 28 21 18 19 21 22 22 24 24 26 27 30 31 34 33 34 34 32 32 32 36 37 32 31 27 30 31 34 37 39
38 34 31 29 30 27 25 27 27 27 26 22 20 21 24 24 22 18 20 22 22 22 24 23 24 25 28 32 27 29 32 29 34 33 34 33 43 39 30 27 32 34 36 39 41
36 33 31 30 28 24 21 23 25 24 24 23 20 20 25 20 18 17 19 20 22 22 23 22 21 28 29 29 29 28 34 35 35 35 35 34 59 35 29 30 36 37 38 39 42
35 31 28 27 24 22 23 24 27 27 29 25 20 21 26 20 19 19 20 20 21 20 19 17 20 30 30 29 32 36 39 39 39 37 36 37 47 35 33 34 38 39 41 40 42
34 32 31 26 24 24 27 28 24 23 22 23 21 16 20 27 22 21 20 21 23 22 21 28 34 32 34 29 26 33 38 38 44 40 38 43 44 38 37 39 44 42 41 42 44
36 34 33 32 31 29 27 28 22 28 25 32 29 27 28 22 21 23 23 20 24 30 31 32 31 41 36 36 30 33 34 40 45 40 41 43 44 43 41 42 42 43 44 42 45
37 34 34 33 34 32 30 26 28 25 30 27 25 24 25 22 24 24 21 22 27 30 28 30 38 35 36 36 32 31 34 46 47 42 38 43 47 42 41 45 45 45 44 46 45
35 35 35 31 26 27 30 39 29 26 30 24 27 25 23 22 32 32 28 29 30 34 36 35 31 31 29 39 32 33 31 39 34 41 38 42 49 44 40 42 43 45 47 45 48
32 33 34 28 26 32 37 37 37 26 30 30 26 25 23 25 30 29 30 27 32 33 33 35 32 31 34 36 36 29 35 35 49 48 47 43 51 48 44 45 44 45 46 47 49
29 30 34 30 28 29 35 38 39 19 27 27 28 21 24 32 32 28 31 29 34 35 30 33 35 37 37 35 34 28 36 38 47 46 50 51 59 61 44 46 42 43 46 48 50
29 32 34 32 31 36 36 35 22 23 33 26 28 32 28 35 40 41 42 36 33 34 36 37 33 36 36 33 32 34 29 32 42 47 48 52 53 58 51 45 45 44 45 49 51
31 36 34 32 42 36 34 25 30 34 29 29 32 33 39 41 42 50 54 59 54 30 46 39 38 39 37 35 35 38 25 24 21 24 26 48 46 51 47 43 43 47 45 46 54
29 31 38 40 46 38 27 28 29 34 36 34 32 35 41 43 49 53 53 60 57 54 58 46 32 44 40 35 39 42 29 23 21 22 26 45 46 46 42 42 43 43 45 51 64
31 36 47 56 49 34 36 42 35 37 34 34 32 36 41 41 42 53 64 64 60 61 45 50 39 38 38 34 33 34 45 41 38 44 44 47 44 39 38 39 42 44 48 59 70
31 34 43 47 40 29 50 56 48 46 41 33 33 38 40 47 42 51 53 57 57 55 54 55 41 42 36 32 34 32 35 20 29 23 22 30 57 49 42 44 47 47 50 69 72
31 52 46 45 32 51 45 50 48 46 41 36 38 44 46 44 50 57 58 58 55 54 41 47 51 34 34 46 45 40 32 38 32 45 30 42 30 41 41 44 48 49 52 77 75
37 51 51 42 53 81 59 48 44 44 43 43 43 42 44 46 55 59 55 58 49 50 41 42 51 45 43 37 30 32 32 27 24 22 50 54 38 37 39 37 46 52 60 76 74
62 67 43 38 44 73 61 58 55 44 51 43 46 43 44 52 51 62 62 53 38 32 33 35 40 34 28 33 26 29 30 35 37 40 40 38 30 40 38 45 48 55 69 77 72
56 52 56 70 68 63 59 55 54 48 48 49 49 43 47 50 60 68 65 57 38 46 44 39 45 33 28 26 32 39 33 34 36 42 40 42 40 31 37 51 52 60 77 72 72
67 51 57 53 54 58 54 53 53 49 47 45 48 45 46 52 50 58 65 53 37 38 39 33 37 38 38 37 37 38 37 39 40 39 38 36 40 35 45 54 57 70 74 69 74
62 63 72 68 57 52 54 48 50 57 48 46 49 47 44 49 44 51 61 52 44 35 39 45 35 41 37 41 39 40 39 40 40 36 41 38 40 39 47 58 65 81 77 79 77
60 54 58 72 60 47 54 56 51 53 49 52 50 48 44 42 42 44 47 50 40 39 44 44 42 30 29 39 37 38 44 39 36 35 34 42 37 51 53 57 76 88 83 84 71

GFSSW_925_rhum_012.txt.gz
RH
24 35 34 34 36 31 24 22 23 25 16 25 30 28 27 26 27 26 26 34 41 29 27 23 22 23 23 24 23 23 20 26 27 26 35 27 29 23 21 24 24 24 25 25 26
22 26 34 34 34 29 21 19 22 18 23 28 29 32 30 25 20 22 30 30 28 25 29 21 19 19 20 23 22 21 25 31 24 27 32 30 29 27 27 27 25 23 23 24 24
24 22 32 32 31 24 20 18 16 21 26 28 32 33 32 32 17 21 23 24 24 24 25 28 20 18 23 21 22 28 29 28 28 27 26 29 29 26 28 31 26 27 24 24 24
32 32 32 30 29 22 18 17 22 28 31 30 28 26 23 24 24 20 22 22 23 21 23 19 17 20 24 24 22 29 27 28 31 28 26 29 25 26 26 27 24 26 26 25 25
34 34 31 27 29 21 17 19 25 26 28 28 24 23 21 16 19 20 21 21 22 20 21 18 18 20 22 22 23 29 29 28 28 26 26 24 26 26 27 23 24 25 26 26 28
38 33 31 27 28 21 16 19 23 28 26 22 18 18 17 21 23 19 21 22 22 20 20 19 19 18 22 25 26 27 27 26 25 27 27 28 26 22 24 20 21 22 24 27 29
34 30 27 28 27 24 22 26 28 26 21 21 21 18 16 20 20 18 21 22 22 23 20 22 21 18 19 28 23 23 29 27 28 27 28 26 30 27 21 19 21 22 23 28 31
34 28 27 28 25 25 26 26 25 24 25 20 19 16 20 20 20 18 19 22 22 22 23 23 19 21 21 20 21 21 23 27 29 28 28 30 41 27 22 21 23 22 23 26 29
31 29 28 24 22 23 25 25 26 27 24 21 20 16 20 20 20 21 21 21 20 19 19 19 18 20 20 21 24 24 26 28 33 26 28 28 36 28 24 23 24 23 23 25 27
32 26 24 22 23 25 30 27 23 22 21 20 18 13 17 21 23 22 20 22 20 17 14 17 17 18 18 20 21 21 26 29 32 30 27 31 32 29 28 25 25 24 24 26 28
35 31 26 26 29 28 24 22 16 15 21 24 24 20 19 20 19 20 23 18 17 16 17 20 17 24 24 25 23 23 22 28 34 32 32 32 32 32 29 26 26 26 26 28 29
36 35 34 33 29 30 26 18 26 20 22 23 22 21 24 22 18 18 20 16 18 19 20 16 25 26 24 26 23 22 22 30 37 31 30 34 35 32 31 31 30 29 31 32 31
37 37 35 29 26 24 32 36 24 21 18 21 22 20 20 19 24 23 22 22 19 21 19 21 27 24 23 23 21 21 20 27 25 37 31 34 39 39 33 31 30 30 30 30 34
36 36 31 25 25 26 39 35 34 20 16 23 21 20 20 22 25 27 26 24 23 24 24 26 25 26 24 27 26 23 28 26 31 33 31 32 28 38 33 33 29 28 30 31 36
34 35 32 26 27 26 38 36 36 20 18 22 22 21 22 24 28 23 29 19 26 27 24 31 28 27 25 29 27 22 30 31 35 32 34 38 38 42 33 35 28 29 31 31 35
34 33 33 29 28 35 35 33 22 17 27 24 24 26 22 27 30 28 26 24 26 24 24 30 28 29 29 29 28 28 24 31 33 32 33 34 34 37 37 33 29 28 28 30 35
39 36 33 30 40 35 34 24 21 22 27 27 28 27 30 32 31 33 34 36 32 25 26 28 30 30 30 26 26 18 16 17 20 20 18 34 35 36 34 30 31 33 30 30 38
36 35 37 40 41 36 26 20 23 30 28 30 29 30 30 34 36 35 34 31 36 35 30 30 23 33 28 29 32 29 23 17 23 19 17 31 25 32 29 29 29 29 30 32 42
39 38 46 52 42 30 21 22 26 28 28 29 28 29 32 34 32 33 38 39 42 41 32 28 29 33 29 26 30 25 22 30 21 23 24 20 33 34 32 26 30 30 32 38 49
31 40 50 46 34 29 24 40 37 38 35 30 28 32 30 34 31 32 36 46 43 41 41 38 29 34 31 30 26 23 25 19 14 20 22 17 20 25 36 29 31 31 36 43 50
32 34 46 39 29 25 27 39 40 41 36 31 32 35 35 35 37 38 41 47 43 39 31 34 35 29 29 30 31 28 22 21 20 22 20 20 20 26 28 32 34 34 40 50 52
43 39 46 35 30 44 35 38 41 40 37 37 35 36 35 39 40 42 40 44 39 37 31 32 32 26 27 27 23 28 22 19 17 16 20 27 21 24 26 31 35 35 42 49 52
48 49 39 33 30 43 51 48 46 40 45 38 40 39 38 41 42 47 48 44 33 28 28 28 28 21 26 32 23 24 23 23 21 22 19 20 18 29 26 29 29 38 48 51 52
46 43 41 45 47 38 43 44 47 46 44 43 42 39 39 41 46 51 50 53 33 40 44 34 30 27 22 22 23 27 27 25 23 21 19 20 17 22 23 31 31 42 50 50 51
50 48 52 41 42 40 40 43 44 44 42 41 42 40 39 42 42 46 52 49 36 40 32 29 33 30 25 27 30 28 26 26 28 21 24 20 27 24 29 33 37 46 52 55 54
48 47 50 50 46 39 46 41 42 50 41 41 41 42 39 40 40 39 45 42 38 31 32 34 30 30 23 30 31 30 24 26 27 28 29 28 28 26 27 29 36 49 59 62 58
57 50 41 62 47 36 41 44 43 42 47 47 41 39 40 40 37 39 36 34 32 31 33 32 27 20 28 22 21 24 21 25 26 25 25 26 24 28 30 35 50 60 64 63 50

GFSSW_925_rhum_018.txt.gz
RH
35 36 37 38 32 29 26 28 22 21 31 32 27 24 23 24 26 26 26 31 29 23 26 22 16 17 15 20 21 18 30 40 35 34 32 24 26 22 21 25 24 23 24 21 20
26 36 35 35 29 22 22 24 20 27 27 25 25 26 27 26 26 23 21 22 22 24 23 16 16 15 22 26 26 34 44 33 27 28 31 26 26 25 26 26 26 25 21 20 22
21 31 32 33 24 20 22 19 24 26 28 31 30 29 27 29 21 20 20 20 19 20 21 17 14 18 27 27 26 28 36 30 27 25 25 28 27 24 29 33 28 28 25 22 23
23 28 30 30 20 18 18 22 25 26 28 28 24 22 23 28 25 19 20 19 18 17 17 14 14 22 30 31 23 30 26 27 28 25 24 26 25 29 28 29 24 24 23 24 24
30 29 30 29 19 17 20 24 26 29 28 26 24 21 23 19 20 18 20 19 16 15 15 16 19 24 28 27 27 31 29 25 25 23 24 23 27 27 27 23 21 22 24 25 25
34 31 29 26 18 20 25 29 28 27 21 20 19 20 24 24 18 19 20 18 17 17 18 16 19 19 24 25 29 28 26 24 22 23 23 25 25 22 23 20 21 23 26 25 25
33 31 29 22 19 23 25 26 26 21 21 19 17 22 19 21 18 18 18 18 17 17 18 17 16 20 23 28 22 23 29 27 26 24 24 22 28 27 20 19 20 22 25 25 25
32 30 29 21 18 21 25 24 22 23 19 17 18 20 21 18 18 18 18 14 14 16 16 17 16 21 23 21 23 26 29 38 27 25 24 28 40 25 19 21 22 21 24 25 24
30 31 29 22 20 26 23 22 22 18 16 16 19 17 20 17 18 17 18 17 14 14 15 16 17 23 23 26 30 29 32 36 32 26 26 31 38 27 20 21 23 22 24 24 26
30 30 27 26 25 23 21 22 20 18 18 16 14 17 17 17 18 16 17 17 15 13 15 16 20 27 24 26 36 28 21 23 37 26 28 32 35 29 24 22 22 22 26 26 28
29 26 24 24 24 26 23 20 23 17 16 19 19 18 16 15 16 16 16 15 14 12 18 15 23 29 23 23 22 21 18 19 30 27 30 27 31 31 26 24 24 24 28 27 29
25 25 25 29 28 24 27 23 31 19 21 15 15 16 17 16 16 18 17 15 14 19 14 19 28 22 19 19 20 18 17 27 28 27 31 29 30 30 28 27 28 28 29 28 29
32 33 30 27 26 28 27 34 35 25 20 20 16 18 19 17 21 21 19 17 18 18 20 25 22 18 18 20 21 17 22 25 23 29 29 30 35 35 29 29 27 26 26 26 30
36 34 30 27 29 24 29 34 32 26 22 21 18 17 16 18 25 18 20 20 18 22 21 22 18 19 18 22 25 26 26 23 23 28 38 30 42 38 36 35 31 27 28 27 32
35 32 28 26 30 25 36 36 25 30 28 20 19 16 16 21 22 21 18 17 22 21 23 30 26 26 23 26 25 24 24 26 29 32 31 37 41 42 35 37 33 28 28 29 31
35 31 31 36 32 36 30 28 25 27 33 24 19 20 18 21 21 18 18 18 20 20 24 27 23 25 27 26 25 25 28 28 28 34 43 36 34 46 38 32 30 28 28 28 31
34 32 31 38 44 32 32 27 33 29 21 24 24 20 22 24 23 24 25 29 31 34 27 26 26 26 22 26 26 24 28 36 38 47 39 27 31 42 32 31 30 28 28 29 35
34 32 32 34 41 32 30 30 30 22 24 23 23 22 25 27 26 22 24 29 30 32 29 27 34 30 23 27 29 32 27 32 32 33 29 26 32 44 30 28 25 23 26 32 38
36 40 44 37 30 28 33 33 41 28 21 23 24 24 28 25 26 23 31 33 36 33 41 31 36 27 27 24 23 26 31 23 26 23 28 27 38 32 30 27 24 26 30 38 44
36 34 42 33 28 35 36 35 32 28 26 23 26 26 24 26 25 23 27 35 34 31 27 29 36 27 30 26 22 21 17 27 27 35 34 28 31 43 39 29 30 31 36 40 45
38 41 43 29 31 40 40 36 33 30 31 31 27 25 27 28 26 27 32 36 32 31 29 24 27 31 26 28 27 29 25 20 21 24 34 36 38 24 32 31 30 29 38 42 47
44 50 36 28 40 34 38 32 38 32 29 30 29 32 31 31 31 32 36 41 30 29 29 28 33 32 30 23 21 25 23 20 28 26 28 28 32 26 28 27 26 33 38 42 46
52 48 34 34 43 46 37 39 37 34 36 31 34 36 30 34 41 35 41 31 29 34 38 35 32 35 34 32 23 26 23 19 20 21 27 31 38 24 25 25 26 31 42 46 47
54 51 47 43 40 35 35 35 44 40 38 33 36 31 32 34 35 42 44 46 31 36 35 38 36 33 34 28 26 28 25 23 23 29 28 28 24 32 27 28 27 35 48 51 50
57 58 54 51 40 32 31 34 40 43 35 34 35 35 31 35 34 39 42 46 38 52 35 33 42 32 31 28 24 26 30 27 30 27 29 26 26 27 28 26 29 42 49 53 52
58 52 42 45 36 41 39 37 36 42 38 36 38 34 32 35 38 36 36 36 37 34 30 35 43 27 30 23 22 27 27 25 26 26 26 24 28 24 21 26 38 51 54 59 48
45 38 53 54 39 38 40 36 38 42 43 40 36 37 38 38 34 33 31 31 32 31 35 35 38 33 46 22 30 47 26 26 21 22 22 28 28 24 28 34 50 59 61 57 30

GFSSW_925_rhum_021.txt.gz
RH
35 36 36 31 26 24 26 19 19 28 34 32 28 27 26 26 21 20 23 23 21 21 22 20 16 16 17 28 25 28 46 48 39 37 35 28 30 25 24 27 26 26 27 25 24
34 34 34 29 22 22 22 19 27 28 27 28 28 26 24 24 24 21 20 20 19 19 17 20 22 19 28 28 29 41 53 42 33 34 34 31 29 29 30 31 31 28 26 25 25
28 33 32 26 20 21 19 24 26 26 30 31 28 25 25 27 26 22 19 18 17 17 17 20 18 24 31 29 30 33 43 34 33 30 28 31 31 28 32 37 31 32 31 27 28
25 32 32 24 20 20 21 24 25 27 26 23 23 22 23 27 30 19 20 18 16 16 16 16 23 28 36 37 30 38 32 31 31 28 26 30 30 32 32 32 29 29 27 28 31
30 30 30 20 19 20 22 23 26 27 25 21 19 18 21 25 22 20 19 17 16 16 17 22 24 28 33 32 30 36 32 28 28 28 29 28 33 32 31 28 25 26 27 30 31
31 28 26 17 18 21 23 27 24 21 20 20 22 22 21 28 18 18 18 16 17 17 17 18 23 26 30 31 35 31 29 28 26 26 26 29 30 25 26 25 28 29 31 31 32
31 27 21 18 23 27 26 24 20 20 20 18 19 19 22 22 18 18 15 15 17 17 19 18 18 23 27 30 25 26 32 30 29 29 27 26 30 30 24 24 28 31 32 31 33
28 27 18 20 24 24 25 20 21 20 19 19 19 21 23 18 18 17 16 14 15 16 16 17 17 25 26 26 27 33 34 43 32 28 27 30 44 27 22 25 27 30 32 32 34
27 26 18 20 22 25 21 22 18 17 17 17 20 18 22 17 17 17 17 18 15 15 16 16 17 27 26 34 37 34 41 41 35 28 30 35 42 29 24 25 28 31 32 32 33
27 24 18 21 25 23 23 22 18 16 18 18 16 20 18 18 16 16 16 16 17 14 16 17 29 34 31 36 42 31 28 38 40 33 33 39 37 31 26 26 29 33 33 34 36
28 24 24 25 24 24 21 21 23 24 17 23 21 21 17 16 16 17 18 16 16 17 20 22 32 31 25 23 23 24 23 31 35 28 31 37 39 35 30 27 31 34 34 33 35
25 25 25 26 26 23 28 30 32 22 24 18 18 18 18 18 22 20 18 18 19 22 19 28 30 24 22 22 22 23 18 29 32 31 30 31 38 35 32 30 33 32 30 31 36
26 26 27 26 24 29 27 34 33 20 26 21 18 20 20 18 24 24 22 22 21 24 28 31 23 21 19 27 27 29 27 28 24 32 29 31 40 40 32 32 30 27 28 34 39
35 30 28 26 28 26 33 37 31 24 32 25 22 19 18 19 27 19 19 21 22 26 24 25 25 24 22 28 28 29 26 24 27 32 40 32 47 42 40 39 34 32 36 38 40
33 29 26 26 30 36 38 32 21 26 38 22 22 16 18 25 22 21 18 20 25 26 26 31 28 30 28 28 27 28 25 26 29 34 32 38 47 47 43 44 40 36 33 37 43
33 28 31 31 35 38 34 28 26 33 36 27 21 21 21 24 23 20 22 22 22 23 29 28 24 28 28 27 28 27 31 30 32 42 52 41 41 48 48 41 36 32 32 38 45
33 30 27 29 44 34 30 29 40 38 21 28 27 22 26 28 26 25 31 36 39 35 32 30 29 28 24 28 26 33 35 43 36 52 50 40 39 43 37 35 33 31 35 42 51
32 31 30 29 30 28 31 38 36 26 29 24 24 25 28 28 27 28 31 41 37 38 40 33 32 32 27 27 29 33 31 37 32 39 34 26 34 43 35 31 28 31 39 47 54
33 34 32 31 29 27 41 49 43 33 26 26 25 28 30 27 26 29 40 41 41 37 39 34 35 28 29 27 24 24 31 25 30 30 34 34 40 34 33 32 29 34 42 52 54
37 38 38 30 28 34 46 45 40 33 33 29 30 29 31 30 28 29 36 38 38 31 31 32 35 30 31 27 26 22 20 27 34 34 37 36 39 43 44 38 33 35 46 52 54
37 52 41 30 31 53 51 40 38 32 33 32 36 28 31 31 30 34 42 41 37 37 32 30 33 29 28 31 29 31 28 23 26 36 36 43 39 30 42 36 34 43 47 56 56
48 56 34 27 43 60 52 36 36 34 31 32 35 37 34 38 39 39 43 42 34 32 31 31 38 37 29 24 23 27 25 24 37 31 34 36 37 28 34 33 35 44 52 55 53
63 55 35 35 49 58 40 42 45 36 39 34 38 37 33 39 43 40 48 33 32 39 39 36 38 40 32 31 25 27 26 22 25 28 32 35 38 29 29 32 33 54 57 56 49
66 48 55 57 54 49 42 42 45 40 38 35 37 34 34 37 37 45 53 45 32 40 36 38 42 36 33 29 28 30 25 23 26 36 34 35 29 32 32 32 47 58 61 60 45
69 66 53 48 39 39 39 41 46 42 38 35 36 37 35 38 38 42 52 48 40 48 39 38 42 37 37 37 32 32 32 32 31 30 31 29 28 30 32 33 51 60 61 59 37
57 54 59 53 42 40 43 38 42 44 40 38 40 35 36 38 40 40 45 47 41 39 33 39 40 36 34 24 23 27 30 34 34 32 33 29 31 28 29 48 60 68 63 58 30
48 43 54 54 44 44 46 39 41 46 43 42 40 40 41 40 36 33 35 36 35 37 40 42 44 40 39 39 41 46 37 32 27 27 26 29 27 30 36 49 64 71 63 39 24

GFSSW_925_rhum_027.txt.gz
RH
36 31 28 30 29 23 20 21 28 31 25 26 27 25 24 21 19 19 21 22 20 17 18 15 15 16 16 31 33 34 53 52 46 41 39 32 33 30 30 36 36 35 35 30 31
34 31 28 26 26 20 25 32 29 26 27 27 24 23 22 22 20 20 19 18 18 16 17 19 23 22 34 31 36 45 54 41 36 37 38 34 33 33 33 37 39 40 35 34 35
34 30 25 23 21 24 28 27 29 29 26 23 22 21 21 25 20 21 18 17 16 16 18 20 20 28 37 35 38 39 46 37 37 36 34 35 35 30 37 37 36 41 39 37 34
32 27 20 19 22 25 27 30 28 25 22 20 19 20 20 21 22 19 17 17 16 15 16 18 26 33 40 39 36 41 39 35 36 34 31 34 32 34 33 33 34 36 35 36 39
32 23 19 20 23 25 26 28 26 21 22 23 20 19 19 26 22 18 17 16 15 14 16 22 28 34 38 36 33 38 33 33 35 34 34 32 34 35 38 37 34 34 36 39 40
29 20 19 21 22 24 26 26 23 21 21 20 17 17 18 29 18 16 17 16 16 16 20 22 27 30 35 36 38 35 34 32 29 30 30 36 35 29 34 37 37 38 42 40 39
26 18 20 21 22 25 23 22 22 21 20 20 18 17 22 22 18 17 17 18 17 17 22 22 21 25 30 33 29 29 34 30 29 29 31 31 34 33 35 36 38 42 43 41 40
23 18 20 23 25 22 21 23 20 18 18 18 18 17 22 17 17 16 16 16 17 16 17 18 18 29 29 30 31 34 37 41 33 32 30 34 43 29 37 38 42 44 48 44 41
20 21 24 24 23 21 22 22 19 18 18 18 18 17 21 16 16 16 17 18 17 17 18 18 20 30 30 39 44 40 42 45 37 34 32 38 43 30 34 38 42 46 50 46 47
20 23 24 23 22 22 20 19 16 17 17 16 16 16 18 20 18 16 17 16 18 16 18 23 29 31 34 39 39 39 41 41 42 39 33 39 44 32 33 35 40 44 47 46 49
20 22 23 23 22 22 23 24 17 22 18 22 21 20 20 18 16 18 19 17 16 22 24 26 28 32 26 27 28 27 28 29 37 34 38 45 42 38 34 34 41 44 46 48 49
20 24 24 23 23 26 24 34 34 22 23 20 19 20 19 19 19 20 18 16 19 23 23 23 27 24 24 26 24 27 25 28 31 32 38 40 43 36 36 36 39 42 45 49 50
25 26 25 23 26 26 33 43 39 25 28 21 20 20 20 19 24 24 21 21 20 23 28 27 21 24 22 29 22 30 26 28 27 32 33 36 42 41 34 33 37 38 39 46 51
28 29 26 26 25 28 36 38 28 27 29 24 23 18 20 23 23 20 21 22 25 25 26 29 27 24 25 28 28 23 28 25 27 35 38 33 42 49 44 40 40 40 48 50 54
30 28 30 28 28 31 33 31 28 23 28 21 23 17 22 23 22 21 21 22 26 29 28 28 29 25 22 26 29 21 27 30 31 38 41 43 49 42 46 47 42 45 47 51 56
29 29 32 30 29 34 30 28 23 33 27 25 23 23 23 28 26 26 27 26 25 29 30 28 28 27 27 28 28 29 31 36 48 50 50 41 44 38 55 46 43 42 45 52 58
31 30 28 31 34 29 26 26 34 38 24 28 26 26 28 29 28 30 35 42 36 31 33 31 31 29 26 20 22 31 32 42 38 42 41 44 46 40 41 39 41 43 48 56 59
32 30 30 29 28 26 27 33 30 28 31 26 27 27 26 29 29 35 36 41 39 40 42 33 19 27 28 24 22 32 29 38 37 43 41 37 49 34 34 34 36 39 49 60 62
33 32 31 31 28 28 37 41 31 33 28 30 27 30 32 28 28 37 42 45 42 38 34 27 22 31 30 28 23 25 29 26 29 36 42 38 33 35 36 37 44 52 60 63 63
34 34 33 31 28 30 42 40 40 36 34 30 30 30 33 31 31 33 41 39 40 34 35 36 29 32 31 29 28 23 24 30 40 40 47 42 38 38 44 43 42 52 60 64 62
38 41 39 31 35 49 45 44 40 34 34 32 34 32 33 32 34 38 39 40 37 36 31 30 35 24 29 33 32 33 32 30 33 40 41 47 42 32 36 40 41 48 55 66 62
51 47 37 36 46 67 50 39 36 35 35 35 36 33 33 38 40 41 40 42 34 34 33 33 40 35 25 27 24 29 28 29 43 40 41 42 39 33 36 40 40 48 61 64 47
56 50 41 40 44 54 46 44 43 38 39 36 37 34 36 41 35 43 46 35 35 38 35 34 36 32 27 30 28 29 30 28 32 33 38 43 42 34 36 38 45 61 67 58 32
59 36 46 61 55 48 45 41 42 41 38 37 37 35 37 38 44 46 47 44 36 39 39 40 41 29 28 24 30 34 30 28 29 40 39 38 33 29 36 42 59 66 68 57 30
75 57 45 46 51 44 38 44 44 42 39 38 37 37 36 39 40 44 53 49 42 47 39 40 40 44 44 43 41 42 42 34 33 33 34 32 34 27 33 39 57 66 70 50 30
58 58 64 60 48 44 49 48 44 43 42 40 38 40 38 37 34 44 51 50 43 43 37 45 39 36 37 29 32 40 38 42 39 33 35 30 32 29 48 62 68 74 71 57 31
60 57 53 60 50 44 47 43 45 45 43 43 42 43 39 40 40 39 43 46 40 40 43 45 44 40 37 38 46 45 38 40 35 38 34 36 30 40 49 54 64 74 70 58 25

GFSSW_925_rhum_030.txt.gz
RH
39 37 29 29 26 20 18 21 28 28 26 27 25 23 22 20 18 19 20 23 22 17 17 17 17 19 20 34 35 35 52 50 46 42 40 33 34 31 33 37 38 38 35 32 32
36 31 28 29 24 19 28 31 27 28 27 24 22 21 20 20 18 18 18 18 17 16 15 16 20 24 37 34 39 46 55 43 39 37 39 35 33 34 36 39 41 41 36 34 35
35 29 26 26 22 30 30 28 30 27 24 22 20 20 19 24 19 20 17 17 16 17 18 18 20 28 37 37 41 42 47 37 39 38 35 38 36 32 40 39 41 43 43 39 40
32 25 23 22 26 28 30 29 26 23 21 20 20 20 19 17 22 17 17 17 16 17 17 18 27 32 40 39 36 43 40 37 39 37 34 36 34 36 35 32 34 37 38 39 42
30 22 22 24 27 29 28 26 22 22 23 21 18 19 18 26 22 18 17 15 16 15 18 21 29 35 39 37 36 39 34 36 36 36 36 33 36 35 37 39 36 37 38 42 43
25 22 22 24 27 26 26 22 22 22 22 20 18 17 18 28 19 18 17 16 15 14 22 24 28 31 36 36 39 36 36 33 31 31 32 35 36 31 36 40 41 41 44 42 43
23 20 22 24 25 26 22 22 21 20 20 20 18 17 22 23 18 18 17 17 18 18 24 23 22 26 31 34 32 31 35 30 30 30 31 32 36 34 38 40 43 44 46 43 43
21 21 23 23 26 23 22 22 20 18 18 20 17 16 22 17 17 16 17 18 17 16 18 19 19 30 30 31 34 35 38 41 34 31 32 34 42 30 42 42 46 47 50 45 45
19 21 24 26 24 23 22 19 18 19 18 18 15 16 20 16 16 17 17 18 18 19 20 20 22 32 33 40 43 46 39 43 39 35 34 38 42 32 42 41 46 50 53 49 49
21 25 26 24 24 22 20 18 16 16 16 16 15 16 19 21 18 17 18 17 18 17 19 23 28 32 36 38 32 38 38 39 43 40 34 40 45 35 42 43 45 49 54 54 51
23 24 25 25 25 24 24 23 17 21 19 23 22 21 21 18 17 18 19 17 16 23 26 24 30 31 27 28 29 29 31 30 34 38 38 44 44 42 37 41 46 49 52 53 51
22 24 25 25 27 24 20 38 35 24 24 21 20 20 20 20 19 20 18 15 19 24 25 23 28 24 25 26 25 30 28 28 31 37 42 41 47 44 40 37 38 42 47 50 52
24 26 26 25 26 25 31 41 38 26 27 21 21 20 20 19 25 25 22 21 20 24 29 26 23 27 24 29 21 29 27 28 27 32 36 39 42 41 36 33 38 41 41 47 53
27 28 26 26 23 29 36 36 28 27 27 22 22 20 21 23 24 22 22 22 27 24 28 29 28 23 25 26 26 21 28 26 29 35 39 36 43 40 44 42 40 41 47 50 53
30 28 30 27 25 28 34 32 29 21 26 21 23 18 23 23 24 22 23 23 27 29 28 27 28 23 21 25 30 22 29 32 33 39 44 44 50 41 46 46 43 45 49 54 58
30 30 32 31 29 32 30 29 22 34 26 25 25 25 23 28 28 29 26 27 26 28 30 29 29 28 28 28 29 29 31 36 50 52 48 42 44 40 45 41 38 44 49 54 62
32 30 27 30 33 29 26 26 36 40 25 27 26 27 29 30 29 33 35 41 36 31 30 29 31 29 26 20 24 27 33 42 39 44 40 45 46 40 34 41 39 45 51 59 64
33 30 29 28 28 27 26 35 35 28 30 27 28 28 26 30 33 36 35 39 40 40 40 30 17 26 28 22 21 34 29 39 37 44 44 42 50 33 33 38 39 42 51 64 68
34 32 31 30 28 29 36 44 37 32 28 32 28 31 32 30 30 37 41 43 43 39 31 27 20 32 31 28 24 28 31 27 33 38 44 40 35 30 37 37 42 54 61 68 69
34 33 34 32 29 28 43 46 38 36 34 30 31 31 34 32 32 33 40 40 41 36 36 35 32 33 33 30 29 24 27 31 42 40 47 47 41 39 33 40 44 55 64 68 67
37 41 40 33 33 49 46 42 40 35 34 32 34 35 34 34 34 38 38 41 38 36 31 31 37 24 30 33 34 35 33 34 36 43 44 52 46 35 31 35 43 48 59 69 68
49 42 40 38 45 67 49 41 37 37 36 37 35 32 36 39 40 41 39 41 36 33 34 35 40 37 24 28 25 29 28 31 44 41 43 45 41 29 33 37 41 47 56 69 58
60 59 43 40 44 53 49 43 41 39 38 37 37 35 37 41 35 43 46 37 37 37 36 35 35 34 30 31 28 29 31 30 35 37 43 46 43 35 36 37 41 53 68 64 35
58 40 48 63 56 47 46 43 42 43 40 38 38 36 38 40 45 50 48 43 38 39 44 39 41 30 32 28 29 34 32 31 31 42 42 42 35 28 34 39 53 63 70 53 32
74 63 48 47 53 45 40 45 45 44 40 38 39 38 36 40 42 45 53 52 44 46 40 40 40 44 44 42 42 42 42 36 35 35 36 36 38 27 30 37 45 63 70 50 34
61 62 65 62 50 45 50 49 44 42 44 42 38 41 41 36 33 42 54 50 42 44 39 47 40 38 39 30 34 38 40 47 41 34 38 33 34 30 45 58 66 71 67 51 37
66 62 57 60 53 45 48 41 45 45 45 42 43 44 41 39 40 46 49 50 46 44 46 48 47 42 41 37 45 44 41 46 41 41 36 38 32 40 41 49 59 70 67 61 42

GFSSW_925_rhum_033.txt.gz
RH
39 39 34 27 22 18 20 25 28 27 28 26 24 22 21 20 17 17 21 25 21 18 17 16 16 18 20 36 37 36 40 45 45 41 38 33 33 31 32 32 34 36 31 31 34
33 34 30 25 20 22 29 28 27 28 25 23 21 20 19 21 17 17 18 18 17 17 15 16 20 24 34 36 40 42 47 43 39 36 37 34 32 32 32 35 36 36 36 36 37
34 30 27 22 24 31 28 28 27 25 22 21 19 19 20 20 18 18 18 17 18 18 17 16 19 27 37 39 40 43 44 38 38 36 32 35 34 32 35 39 34 35 36 38 40
29 26 25 24 30 28 29 27 25 22 23 21 20 19 16 16 22 18 18 16 17 16 16 18 26 32 41 40 36 39 39 37 38 36 33 34 33 35 35 32 30 32 36 39 40
26 22 23 26 27 28 28 24 23 23 21 19 18 17 15 25 22 19 18 16 15 14 20 21 28 35 39 36 36 38 36 36 36 35 36 33 35 34 35 37 35 36 39 40 42
22 21 24 26 27 27 25 23 23 21 21 19 18 16 16 28 20 17 17 16 14 14 22 24 29 30 34 36 38 36 35 33 31 31 32 34 35 32 36 37 36 36 38 41 42
20 22 24 25 25 26 23 23 22 20 19 19 17 17 21 23 18 18 16 16 17 18 24 24 22 26 31 35 33 32 34 31 30 30 31 31 37 35 34 37 38 37 38 41 44
20 22 23 24 26 24 23 22 19 19 18 19 16 17 22 18 17 17 18 19 18 17 18 20 20 31 31 32 34 35 37 40 33 31 32 34 37 34 37 37 39 39 39 40 44
21 22 24 26 24 24 23 20 20 18 17 17 15 17 20 17 17 17 17 18 18 18 20 20 24 35 35 37 39 42 34 42 40 33 33 37 39 33 39 37 38 39 40 40 43
21 25 25 24 24 25 23 17 16 15 16 16 16 16 19 20 19 18 18 18 18 17 20 22 27 30 33 32 25 35 34 36 42 38 34 38 39 36 41 39 36 38 40 42 42
25 25 24 24 27 27 21 21 16 20 19 23 23 22 22 19 18 19 18 16 16 23 26 24 27 30 28 28 31 32 32 32 31 39 37 40 39 36 36 41 40 39 41 43 42
24 25 24 28 26 24 21 33 28 22 26 21 21 21 21 20 18 21 18 16 21 24 25 23 28 25 26 25 26 31 31 30 30 41 40 42 40 39 40 38 37 37 40 41 44
26 26 25 26 24 25 30 38 32 25 26 21 22 21 21 20 26 26 22 21 20 24 28 26 23 28 25 27 20 26 28 29 28 32 41 41 37 38 36 36 35 36 37 38 41
29 27 24 24 22 28 37 38 32 26 25 20 22 21 22 23 26 24 23 23 28 24 29 28 27 24 25 24 26 20 30 27 31 36 35 37 33 36 40 39 37 35 38 37 41
31 32 27 24 24 27 36 36 32 21 32 20 24 20 24 22 24 25 24 23 27 30 27 25 27 22 21 23 30 26 34 35 36 39 43 40 39 31 42 35 35 36 39 40 44
32 32 32 28 28 32 31 30 23 31 32 24 26 26 23 29 30 30 25 27 26 29 31 29 31 29 28 28 30 29 31 39 47 48 40 43 39 31 30 30 33 39 40 44 50
34 31 27 29 31 28 26 26 34 36 26 26 27 28 29 31 32 33 34 40 34 28 29 28 32 30 27 20 24 26 33 38 36 39 35 44 42 32 31 36 36 36 41 47 54
34 32 30 28 28 26 25 35 34 30 30 28 29 28 27 31 34 36 34 37 40 38 38 28 16 28 29 23 22 33 30 34 36 38 39 41 41 28 33 36 37 39 42 52 58
34 33 32 31 27 27 33 42 38 32 28 33 30 30 33 31 31 36 40 42 42 38 26 25 19 33 33 28 24 28 30 28 34 38 40 36 32 27 36 35 38 46 52 58 59
34 33 34 33 30 27 39 43 36 35 34 30 30 32 35 33 33 34 39 40 43 36 37 37 26 34 35 30 31 25 27 30 38 38 44 40 40 34 30 31 37 43 51 58 60
37 40 39 35 31 47 35 45 39 37 35 32 35 36 34 35 36 38 37 42 39 39 32 35 32 22 30 34 35 32 32 35 36 40 39 46 38 32 29 30 33 36 46 56 59
47 42 41 39 42 66 51 40 38 38 38 38 34 32 38 41 40 42 40 40 37 34 34 34 38 30 24 30 26 29 29 31 38 40 41 42 37 27 30 31 35 36 45 55 56
64 65 43 38 41 51 49 43 42 41 40 40 38 35 37 42 36 42 45 39 38 38 41 38 35 32 30 32 29 31 32 33 36 37 43 42 38 32 35 35 36 40 50 58 53
60 48 50 63 58 45 46 43 42 44 40 38 39 37 40 44 46 46 50 41 40 38 45 38 40 29 32 28 28 34 34 33 32 40 41 38 33 27 32 35 36 46 54 56 40
77 64 49 45 51 45 44 42 44 47 42 39 40 39 38 41 44 47 53 53 46 49 40 39 37 45 42 40 38 38 37 38 35 36 35 35 37 27 27 32 33 43 60 50 37
66 66 69 63 54 44 48 46 45 42 47 45 41 41 42 38 36 39 58 56 48 49 43 48 40 40 39 33 46 41 43 48 36 36 38 33 34 24 30 45 47 55 59 51 38
70 65 59 62 55 48 47 39 44 42 44 41 44 46 46 42 40 50 51 51 46 48 48 48 47 41 37 38 43 40 42 43 44 42 36 37 31 37 34 39 40 54 58 53 41

GFSSW_925_rhum_039.txt.gz
RH
48 28 22 17 15 18 24 28 28 26 24 22 20 19 18 17 18 18 19 26 30 17 17 21 14 17 16 20 20 20 17 24 27 25 26 24 26 24 22 23 23 21 21 22 25
31 26 21 18 19 24 28 28 27 24 21 20 19 18 18 17 18 15 20 18 18 16 17 13 11 12 16 20 19 20 18 24 21 20 24 24 22 25 24 24 24 24 23 24 28
28 26 21 20 26 27 28 28 24 22 22 20 19 18 16 15 15 14 16 16 18 18 16 14 13 13 20 20 22 23 24 24 23 21 20 23 22 21 23 27 22 24 24 25 26
29 25 22 29 27 28 28 25 23 23 21 18 17 17 16 21 18 15 16 16 15 15 15 12 11 15 20 22 20 24 24 22 25 23 22 24 21 24 22 22 20 20 23 25 25
26 24 29 28 29 28 25 23 23 22 20 18 17 16 15 13 16 17 16 16 15 17 15 11 11 16 18 20 18 23 24 22 23 23 21 22 24 22 23 20 20 21 23 24 24
23 26 27 28 27 26 23 22 21 20 19 18 16 14 15 15 18 17 16 16 17 14 14 13 14 14 18 21 22 22 22 22 21 22 22 24 23 25 20 20 21 22 24 23 23
24 26 28 26 25 24 22 21 19 19 18 17 16 16 13 17 18 18 18 18 16 15 17 16 15 15 16 24 19 20 23 22 22 22 22 23 25 27 19 22 22 23 23 23 23
24 26 26 26 23 22 20 19 19 18 18 16 15 16 16 17 18 17 17 16 17 18 18 17 17 18 18 19 19 20 20 22 22 22 23 24 20 22 20 22 23 22 21 23 23
24 24 26 24 23 21 19 17 16 16 15 14 14 13 16 16 16 17 18 16 16 16 18 18 17 20 21 18 20 21 14 15 24 21 22 25 21 23 21 22 22 21 20 21 23
23 26 24 25 22 22 18 15 16 16 15 14 13 13 14 14 17 18 17 18 14 14 14 13 13 14 13 13 15 13 12 12 15 23 24 23 23 18 22 22 22 20 20 20 22
26 24 25 26 21 21 19 17 15 13 14 18 17 16 14 15 17 14 16 15 12 12 13 11 12 13 13 15 15 15 14 14 12 24 26 22 20 16 18 23 23 20 20 20 20
25 25 27 25 21 19 20 17 28 29 17 16 16 15 18 17 14 13 16 13 13 13 14 14 16 16 16 16 16 14 16 14 16 22 24 20 20 18 17 19 23 22 20 19 19
26 24 24 25 22 28 26 35 33 28 15 16 16 15 16 17 16 15 15 14 13 13 12 14 19 19 18 15 15 13 16 16 19 18 18 24 21 21 22 23 21 21 20 18 19
27 25 23 23 23 27 28 34 31 31 16 18 17 16 16 16 18 18 17 18 16 14 15 16 18 18 17 15 17 18 20 20 22 24 22 20 22 19 18 20 23 23 23 21 20
30 29 25 21 24 21 37 37 29 22 24 18 18 18 16 18 19 20 19 17 17 16 20 23 18 17 15 17 19 19 25 22 24 24 23 23 23 19 18 17 18 19 20 21 21
31 29 27 32 28 32 28 26 25 22 24 21 18 19 17 18 19 18 16 17 18 18 17 20 21 19 20 20 20 21 22 22 25 22 27 22 21 16 15 14 16 18 18 19 21
30 28 27 28 28 29 26 24 23 22 21 20 20 19 18 17 19 19 16 17 19 19 21 22 22 22 20 20 21 20 19 22 25 25 20 22 24 17 16 15 16 16 17 20 20
30 28 28 27 29 26 27 20 26 21 18 22 22 21 20 20 20 21 20 17 20 20 15 14 19 22 21 19 20 19 21 20 26 20 19 23 26 16 15 17 17 18 19 20 22
31 35 36 30 25 28 21 23 18 22 20 22 22 21 18 22 23 22 20 17 18 20 19 13 15 24 24 20 20 22 22 20 22 21 26 17 14 13 16 17 18 19 20 23 24
35 30 31 30 26 31 22 22 21 22 23 24 23 20 20 20 23 22 19 21 24 23 21 17 16 22 28 22 20 22 18 24 22 27 25 14 15 19 19 16 17 19 21 23 25
42 27 39 32 28 22 24 19 23 26 26 25 23 22 22 24 23 21 18 25 24 26 23 19 18 25 26 27 22 22 21 21 24 23 27 22 16 13 14 15 16 17 17 19 24
43 31 39 31 27 23 23 20 36 28 30 30 29 25 23 23 24 22 21 21 24 24 23 19 20 18 17 22 21 22 19 18 22 25 25 28 23 15 15 16 17 17 17 18 21
35 29 39 47 28 27 25 28 30 30 29 31 32 29 26 26 28 24 27 32 30 26 24 23 21 20 25 26 22 23 21 19 20 22 24 25 17 15 15 17 17 19 19 20 23
44 36 37 36 33 28 22 25 26 36 32 30 30 31 32 30 28 28 31 37 30 30 42 31 25 24 20 24 20 25 24 22 22 23 21 22 19 16 15 14 14 15 19 20 24
43 35 42 35 34 31 26 26 30 32 36 32 33 32 29 28 30 34 28 38 37 44 33 30 33 25 22 20 22 22 21 24 25 20 22 16 17 16 15 15 14 17 20 22 24
50 45 43 36 36 38 38 28 30 25 32 33 35 26 29 30 25 24 31 31 30 40 33 32 32 31 27 23 27 30 26 24 24 22 21 21 23 16 14 14 18 18 20 25 27
52 54 49 43 39 38 31 30 30 27 26 26 30 29 34 31 24 31 28 31 28 33 34 36 34 31 30 26 26 30 25 24 24 23 22 25 18 16 19 18 19 20 22 23 27

GFSSW_925_rhum_042.txt.gz
RH
30 22 19 19 16 19 27 28 28 26 22 20 18 18 17 16 18 19 24 22 20 17 16 21 19 16 16 20 20 21 30 34 28 31 35 28 29 24 22 27 23 23 25 24 26
28 26 22 19 20 28 28 28 26 22 21 19 18 17 15 13 16 20 19 17 19 17 20 14 14 12 21 21 23 32 37 33 24 23 32 28 27 28 27 26 26 26 24 27 27
29 24 20 20 28 29 29 27 23 22 20 18 16 16 14 12 16 15 16 16 15 14 17 14 12 14 23 24 24 26 36 27 24 22 24 27 23 24 26 31 26 29 29 28 27
25 22 21 29 28 28 28 24 24 21 19 17 16 15 14 18 21 16 15 13 13 14 16 13 12 16 24 24 20 29 24 23 26 22 24 27 22 25 26 29 23 24 25 28 28
22 23 30 27 28 28 25 24 23 21 19 17 16 14 13 15 17 16 15 15 14 14 13 15 13 17 22 20 22 27 25 23 25 23 22 23 25 26 26 25 20 23 25 28 27
24 28 27 28 28 25 24 23 21 20 18 17 15 13 17 17 17 17 17 16 15 14 13 13 16 17 21 22 26 24 24 25 23 23 23 26 24 26 24 24 23 26 29 28 26
25 26 28 27 25 24 23 22 19 18 18 16 15 15 15 18 17 17 16 17 16 15 17 16 14 16 19 25 20 23 27 24 24 24 24 24 30 31 23 24 25 27 29 28 25
26 27 26 25 23 23 22 20 19 17 16 14 14 16 19 16 17 16 16 15 16 17 17 17 16 19 20 22 20 23 23 33 26 25 26 26 29 27 24 27 27 27 28 29 26
25 25 26 24 23 22 21 16 16 16 14 13 14 14 19 15 16 16 16 16 16 15 17 17 16 22 22 26 28 24 23 20 31 24 27 29 29 26 24 26 28 27 27 28 28
24 25 24 24 24 23 19 15 16 16 15 14 12 14 14 15 16 15 15 17 14 14 17 18 18 26 22 18 25 19 16 15 18 28 25 29 32 26 26 26 28 27 26 26 27
26 24 25 25 21 20 18 20 20 19 15 19 18 16 14 14 14 14 15 15 14 15 18 13 19 22 18 17 15 16 16 17 25 25 26 30 28 22 25 27 30 28 27 26 25
25 24 26 24 19 20 23 19 31 32 24 15 16 15 16 16 16 14 15 16 14 18 13 17 21 18 16 16 17 16 18 18 22 23 26 26 27 25 24 28 27 28 27 26 24
26 24 24 23 21 26 25 32 30 30 25 18 15 14 16 17 16 16 16 16 16 16 13 22 21 18 18 16 17 17 17 21 21 22 21 27 30 26 23 23 27 27 26 24 26
27 26 23 22 24 23 30 35 36 32 24 22 18 17 16 16 20 16 16 18 17 18 16 20 19 19 18 17 18 24 20 20 24 29 32 21 38 28 26 27 26 29 30 28 26
28 27 24 24 25 25 33 31 30 26 34 19 19 17 16 19 19 20 18 18 21 19 20 24 21 20 19 20 19 27 25 24 26 30 27 28 34 25 21 25 28 29 29 31 29
29 27 25 33 28 28 26 26 27 32 30 24 19 19 18 19 19 18 17 18 19 20 19 23 20 19 23 19 20 22 23 27 27 32 40 26 25 28 27 17 20 22 23 26 29
30 28 26 28 34 27 26 28 37 31 22 24 22 19 18 18 18 19 17 21 24 27 29 26 26 23 21 22 24 24 29 42 45 47 41 24 28 29 20 16 16 22 25 24 26
31 31 29 26 26 24 29 31 34 20 20 22 21 21 22 18 20 20 22 23 21 22 22 21 28 27 22 21 26 23 25 34 30 31 28 25 35 25 19 19 19 19 18 22 26
31 34 35 34 24 26 30 32 26 25 20 22 23 25 22 22 23 23 23 22 20 20 24 19 26 25 24 21 21 25 34 22 28 23 34 29 22 23 20 20 21 22 23 27 28
36 33 30 32 25 33 34 28 22 23 23 23 27 20 22 23 26 22 20 21 26 23 21 21 21 23 30 22 22 25 21 32 35 37 37 27 21 26 25 24 24 25 27 30 31
41 42 41 30 27 36 37 26 21 26 25 26 26 24 23 24 24 24 22 27 23 27 23 22 20 30 28 33 29 28 28 26 29 31 42 37 34 15 18 19 20 23 24 28 33
50 48 37 33 41 35 33 24 35 28 29 32 31 30 27 24 26 24 23 28 23 27 25 26 28 28 23 23 21 23 24 25 36 33 38 40 38 17 16 20 20 22 20 21 29
60 46 39 36 47 38 29 26 29 30 31 33 33 32 28 28 33 29 27 33 30 26 29 25 29 33 30 28 23 26 24 23 25 28 36 36 33 18 18 19 22 24 25 26 28
61 54 51 50 43 42 38 29 32 35 32 29 30 31 32 35 31 34 33 37 31 31 38 31 33 35 35 29 24 28 26 27 28 36 34 32 24 19 22 21 20 22 26 28 32
58 50 53 51 48 43 38 34 34 33 39 32 34 36 34 34 32 37 35 43 38 48 38 36 44 32 32 31 27 27 29 30 30 26 28 20 24 20 19 21 20 19 21 25 31
56 61 51 50 37 40 43 37 38 32 36 38 42 32 36 37 31 31 29 38 40 48 40 38 45 33 37 30 29 33 32 30 29 27 26 24 25 17 17 19 19 22 24 30 32
49 52 58 46 45 46 42 39 34 30 30 29 35 37 38 37 34 32 35 33 37 46 43 48 48 41 50 26 31 41 29 30 29 28 27 33 23 20 23 23 25 27 28 31 34

GFSSW_925_rhum_048.txt.gz
RH
26 22 18 15 14 19 29 28 27 24 23 22 20 18 15 17 16 16 18 17 17 18 18 17 17 24 20 24 24 32 42 47 45 50 38 42 34 28 26 30 28 29 37 30 24
18 18 16 15 19 28 29 28 25 23 21 20 19 17 15 15 19 17 16 15 14 15 16 18 17 20 27 25 28 42 46 38 28 38 40 40 33 32 30 31 30 33 33 31 24
22 20 17 19 26 28 28 26 23 21 20 19 18 16 15 16 17 17 15 14 14 14 15 17 17 18 25 23 26 29 42 29 27 29 36 37 34 30 35 37 35 36 37 30 28
22 18 20 25 28 28 26 23 22 20 19 18 16 14 13 19 23 16 16 14 14 14 15 15 16 23 25 26 26 31 31 27 26 33 34 37 33 31 36 31 27 32 32 30 30
21 20 25 26 27 26 23 23 21 20 19 18 16 14 14 19 18 16 16 15 14 14 16 16 18 24 26 26 26 30 29 27 26 30 31 31 32 32 32 31 28 33 32 32 30
20 26 26 26 26 23 22 21 20 19 18 18 16 16 19 20 16 16 17 16 15 16 16 17 19 22 25 26 29 28 29 28 25 25 25 28 28 28 27 32 35 35 36 34 32
27 28 27 26 24 22 21 20 19 18 17 17 15 17 18 17 16 17 17 16 15 15 18 18 18 19 23 26 27 29 28 28 28 26 27 26 32 35 28 33 38 38 38 36 34
27 28 26 25 23 22 22 20 18 17 16 16 15 17 20 16 16 16 16 16 16 15 16 17 17 23 24 25 26 28 29 35 30 31 28 27 27 24 34 36 38 40 45 39 37
28 26 25 23 24 24 22 19 15 16 16 16 16 18 20 16 16 16 15 16 16 16 15 16 19 25 24 30 36 34 34 35 32 33 30 33 29 27 35 34 37 41 43 40 38
26 27 25 25 24 21 19 17 17 18 16 17 17 17 16 17 15 14 15 16 17 17 19 18 32 35 29 36 26 33 30 23 30 32 32 36 38 31 33 37 35 38 41 41 38
28 25 25 25 23 20 21 22 20 21 17 19 19 18 16 15 15 16 16 16 17 18 22 22 23 26 27 22 19 18 20 22 22 30 34 38 38 32 31 38 39 41 42 38 36
27 26 25 24 22 25 26 31 30 32 29 19 17 17 17 16 18 16 15 18 17 21 19 21 25 21 18 18 18 19 21 24 24 29 32 34 32 27 30 35 32 33 36 36 34
28 26 24 24 23 26 25 33 32 34 28 23 18 17 18 17 19 18 16 19 19 21 17 22 21 19 19 20 21 20 23 22 23 26 32 33 36 30 26 33 32 35 32 34 33
30 27 24 24 23 28 32 33 35 32 31 23 18 18 18 19 19 17 18 18 20 20 20 23 21 22 22 21 20 19 23 24 26 32 36 27 39 29 31 30 28 33 38 33 36
30 27 24 30 30 34 35 29 27 25 31 22 21 17 18 20 20 20 18 20 20 22 20 22 22 22 23 22 20 20 26 25 27 34 37 36 40 34 31 32 30 26 33 35 33
29 27 25 29 33 31 29 27 28 36 38 23 22 22 22 22 21 22 20 20 21 23 24 26 22 21 21 21 20 25 24 33 42 45 52 40 40 34 31 29 25 24 28 32 36
29 28 28 29 31 27 27 29 39 36 22 26 25 24 23 24 23 25 23 26 28 29 27 28 29 24 22 22 25 26 34 42 46 55 52 34 36 31 24 25 24 22 24 29 34
29 27 28 30 27 26 30 36 37 28 27 23 23 23 26 22 22 25 26 30 27 26 29 27 23 29 25 22 26 32 33 46 38 41 37 33 41 28 23 26 25 23 24 27 33
28 32 33 35 30 28 34 40 35 30 23 25 26 28 26 24 22 26 30 31 26 26 25 30 25 28 25 23 21 24 34 29 32 37 44 36 32 24 25 23 24 24 25 28 32
30 35 38 40 32 31 40 39 31 25 25 25 25 27 25 27 27 27 27 25 25 25 23 23 28 27 28 24 24 27 26 33 43 35 41 41 38 29 21 25 26 27 29 29 31
41 48 40 38 31 46 39 43 29 28 27 27 28 30 27 26 30 30 28 24 29 28 24 24 24 24 29 34 31 32 30 31 40 49 46 40 34 26 23 23 26 26 27 27 28
60 44 41 37 41 59 49 37 28 31 31 31 31 33 33 28 30 31 31 26 29 29 26 25 32 34 28 25 26 26 27 32 37 30 54 54 45 23 26 26 26 28 26 28 30
81 72 46 44 45 51 47 35 30 34 34 35 36 37 33 33 34 35 31 35 30 29 31 28 32 32 27 32 28 30 31 30 35 42 44 45 27 20 26 25 27 29 27 28 30
78 64 64 61 61 49 45 41 37 36 34 35 35 35 39 39 37 36 34 37 33 32 37 29 35 30 28 25 32 29 29 32 33 42 32 37 23 18 16 20 22 25 28 30 31
82 61 64 63 59 50 42 42 41 39 38 36 36 40 42 43 40 45 40 42 39 42 37 37 42 42 38 37 37 38 37 34 34 29 34 24 24 21 18 19 22 22 25 26 26
64 78 66 66 63 49 54 48 49 45 39 42 45 38 47 46 41 36 37 44 41 51 44 46 43 46 48 39 43 43 39 36 35 33 29 27 28 19 17 18 21 21 28 30 31
90 70 68 60 52 58 62 49 43 40 38 38 44 42 45 48 44 44 44 43 40 46 51 53 52 52 54 41 44 51 41 32 30 38 31 35 25 19 22 25 25 22 26 29 29